Погода в Серове

Погода в Серове : погода сейчас, прогноз погоды и архив. Всё, что Вы хотите узнать о погоде в Серове!

Поиск расширенной информации на нашем сайте:

Другие новости

Новости СМИ2

Главная страница сайта

Новости сайта

02.10.2013

Напоминаем, что на нашем новом сайте вы можете получить высокодетализированные прогнозы погоды по пунктам России, СНГ и мира (включающие важные для авиации метеовеличины, такие как направление и скорость ветра, видимость, явления погоды, количество и форма облачности, нижняя и верхняя граница облачности), а также ознакомиться с разнообразными материалами по авиационной метеорологии и подборкой полезных ссылок на эту тему.

Сайт Метеоцентр.Азия посвящён разработке технологий оптимизации авиаметеорологического обслуживания, включая проектирование и перспективное создание нескольких автоматизированных авиаметеорологических систем:
- система выпуска высокодетальных прогностических карт явлений погоды для нижнего воздушного пространства по России и ближнему зарубежью;
- система верификации прогнозов TAF (выпускаемых синоптиками официальных АМСГ РФ и ближнего зарубежья) и AUTOTAF (выпускаемых сайтом Метеоцентр.Азия) - выявление ошибок, онлайн-сопоставление с фактической погодой METAR, автоматическое внесение коррективов в прогнозы при резком отклонении фактической погоды от прогноза, подсчёт оправдываемости прогнозов по элементам и в целом;
- система обработки, анализа и отображения авиаметеорологической информации для применения провайдерами метеорологической информации.


Погода в Серове - сегодня

Время (UTC), дата Ветер
(°,м/с) 
Видим.   Явления Облачность Т
(°С)
Тd
(°С)
f(%) Тe
(°С)
Pmin
(гПа)
dP
(гПа)
Po
(мм)
O2
(г/м3)
Тmin Tmax R s Состояние
почвы
21 21.06.17 270 (З) 10 км    1/1 600 м 
[Sc]
+13.5 +11.1 85 +17  998.3  0.9  738  281           
00 22.06.17 280 (З) 20000 м    6/0 верхняя 
[Ci fib]
+12.8 +10.5 86 +16  998.9  0.5  738  282           
06 22.06.17 190 (Ю) 20000 м    9/5 600 м верхняя 
[Cu Sc|Cs]
+22 +10.9 49 +25  998.3  -0.3  738  273           
12 22.06.17 200 (Ю) 4{10}  20000 м    8/8 600 м 
[Cu Sc]
+21.7 +11.4 52 +25  998.5  0.1  738  273           
18 22.06.17 210 (ЮЗ) 10 км    4/4 600 м 
[Sc]
+17.5 +11 66 +21  999.6  0.7  739  278           
21 22.06.17 080 (В) 10 км    8/8 600 м 
[Sc]
+13.9 +11.3 84 +18  999.4  -0.4  739  281           
00 23.06.17 тихо ()   20000 м  {ливн. осадки}  9/8 300 м кучево-дожд., верхняя 
[Cb calv|Ci fib]
+13.7 +12.5 92 +19  998.7  -0.6  738  281           
06 23.06.17 230 (ЮЗ) 20000 м    9/9 300 м кучево-дожд. 
[Cb calv]
+17 +8.9 59 +17  1000.8  1.5  740  279           
09 23.06.17 240 (ЮЗ) 20000 м    9/9 300 м кучево-дожд. 
[Cb calv]
+19.7 +6.3 42 +21  1001.7  740  277           
12 23.06.17 230 (ЮЗ) 20000 м    9/9 300 м кучево-дожд. 
[Cb calv]
+19.6 +6 41 +20  1001.9  0.2  741  277           
18 23.06.17 290 (З) 10 км    3/3 600 м 
[Sc]
+12.7 +6.5 66 +14  1004.4  1.5  742  285           
21 23.06.17 300 (СЗ) 10 км    ясно 
+8.8 +6.1 83 +9  1005.3  0.7  743  289           
00 24.06.17 300 (СЗ) 20000 м    3/0 верхняя 
[Ci fib]
+7.3 +5.4 88 +7  1005.6  0.2  743  291           
06 24.06.17 180 (Ю) 20000 м    9/9 600 м 
[Cu Sc]
+16.1 +8.7 61 +16  1004.7  -0.5  743  281           
12 24.06.17 360 (С) 2{10}  20000 м  в посл. час гроза{ливн. осадки}  9/9 300 м кучево-дожд. 
[Cb calv]
+16 +9 63 +17  1003.3  -0.9  742  281           
18 24.06.17 280 (З) 10 км  {ливн. осадки}  1/1 600 м 
[Sc]
+11.2 +9.4 89 +13  1003.9  742  285           
21 24.06.17 290 (З) 10 км    ясно 
+8.5 +7.3 92 +10  1004.1  -0.1  742  289           
00 25.06.17 270 (З) 20000 м    5/0 верхняя 
[Ci fib]
+7.9 +6.8 93 +8  1004.2  0.1  742  289           
06 25.06.17 120 (ЮВ) 20000 м    10/10 600 м 
[Sc]
+14.8 +10.1 73 +17  1003.2  -0.4  741  282           
09 25.06.17 080 (В) 20000 м  слаб. дождь  10/10 300 м 
[Frnb]
+13.4 +9.9 79 +15  1002.3  -1  741  283           
12 25.06.17 050 (СВ) 10 км  слаб. дождь  10/10 300 м 
[Frnb]
+12.9 +11.3 90 +15  1000.5  -1.7  739  282           
18 25.06.17 040 (СВ) 4{11}  2000 м  слаб. дождь  10/10 300 м 
[Frnb]
+13.4 +11.5 88 +17  995.8  -2  736  280           
21 25.06.17 050 (СВ) 2000 м  слаб. дождь  10/10 300 м 
[Frnb]
+13.4 +11.8 90 +18  994.9  -0.9  735  280           
00 26.06.17 тихо ()   20000 м  {дождь}  10/10 300 м 
[Frnb]
+13.2 +12 92 +18  994.3  -0.7  735  280           
03 26.06.17 260 (З) 20000 м  {дождь}  10/10 300 м 
[Frnb]
+13.5 +12.4 93 +20  994.2  0.1  735  280  +12.8      влажная 
Время (UTC), дата Ветер
(°,м/с) 
Видим.   Явления Облачность Т
(°С)
Тd
(°С)
f(%) Тe
(°С)
Pmin
(гПа)
dP
(гПа)
Po
(мм)
O2
(г/м3)
Тmin Tmax R s Состояние
почвы

Для получения пояснительной информации подведите курсор к названию столбца.

ПОГОДА в Серове - архив

Всё, что Вы хотите узнать о погоде в Серове - удобно и подробно!

Выберите нужную дату (начиная с 1 января 2015* года) и нажмите кнопку "Найти".
Будут отображены архивные сводки погоды по пункту Серов, начиная с указанной даты.


Отображать данные в формате CSV (для использования в таблицах Excel)


Внимание! Наш архив погоды предназначен исключительно для личного некоммерческого использования в познавательных целях. Если Вам необходимы официальные справки о состоянии погоды (для производственных, юридических, коммерческих и т.п. целей), обращайтесь в органы Росгидромета.

*Примечание: данная дата относится к архиву по метеостанциям СССР (Россия, СНГ, Балтия).
Архив по метеостанциям Зарубежной Европы и Азии (кроме Китая) хранится 10 дней, по другим регионам земного шара (Китай, Африка, Америка, Австралия, Океания) - 1 день.

Серов - район местоположения метеостанции


Название, широта, долгота, высота метеостанции:
Серов 59.6°ш. 60.5°д. 130 м над ур. моря [Российская Федерация]

Дополнительная информация

В oтличие oт бoльшинства пoгoдных сайтoв мы публикуем пoдрoбную метеoинфoрмацию в детальнoм прoфессиoнальнoм фoрмате.

Характеристики температуры и влажнoсти вoздуха измеряются на высoте 2 м в тени вдали oт зданий и деревьев.
Скoрoсть ветра измеряется на высoте 10 м (на урoвне рoста челoвека скoрoсть ветра ниже в 1.5-2 раза). Если метеoстанция нахoдится в гoрoде или в лесу, тo скoрoсть ветра занижена на 2-4 м/с пo сравнению с oткрытым местoм. Скoрoсть ветра над акватoриями крупных рек и oзёр, а также на вершинах хoлмoв на 2-5 м/с выше, чем в oбычных услoвиях.
Атмoсфернoе давление в разных тoчках местнoсти мoжет значительнo oтличаться oт давления на метеoстанции, в зависимoсти oт услoвий рельефа (при пoдъёме на 10 м давление пoнижается примернo на 1 мм рт.ст.).